Location: Noverd
(38.0910°N, 121.6877°W)
Time: 05:18:30
(UTC+00:00)

Cosmos 2100 Rocket - Pass Details

Date: 23 May 2026
Orbit: 956 x 999 km, 82.9° (Epoch: 8 June)

Event Time Altitude Azimuth Distance (km) Brightness Sun altitude
Rises 04:10:00 0° 225° (SW) 3,669 7.1 -9.8°
Reaches altitude 10° 04:13:08 10° 240° (WSW) 2,733 6.7 -10.3°
Maximum altitude 04:17:48 22° 289° (WNW) 2,034 6.7 -11.0°
Drops below altitude 10° 04:22:32 10° 337° (NNW) 2,764 7.4 -11.7°
Sets 04:25:45 0° 353° (N) 3,722 7.8 -12.2°
